TimeEST,TemperatureF,Dew PointF,Humidity,Sea Level PressureIn,VisibilityMPH,Wind Direction,Wind SpeedMPH,Gust SpeedMPH,PrecipitationIn,Events,Conditions,WindDirDegrees,DateUTC
12:54 AM,28.9,28.0,96,30.34,3.0,Calm,Calm,-,N/A,,Clear,0,2012-11-28 05:54:00
1:09 AM,28.4,28.4,100,30.32,2.5,Calm,Calm,-,N/A,,Clear,0,2012-11-28 06:09:00
1:26 AM,28.4,26.6,93,30.31,3.0,SSW,4.6,-,N/A,,Clear,200,2012-11-28 06:26:00
1:37 AM,26.6,26.6,100,30.31,2.5,South,4.6,-,N/A,,Clear,190,2012-11-28 06:37:00
1:54 AM,28.0,27.0,96,30.34,2.0,SSW,3.5,-,N/A,,Clear,200,2012-11-28 06:54:00
2:10 AM,28.4,26.6,93,30.32,1.8,SSW,3.5,-,N/A,,Clear,210,2012-11-28 07:10:00
2:29 AM,26.6,26.6,100,30.33,2.0,WSW,3.5,-,N/A,,Clear,240,2012-11-28 07:29:00
2:54 AM,27.0,26.1,96,30.37,3.0,SW,4.6,-,N/A,,Clear,230,2012-11-28 07:54:00
3:54 AM,27.0,26.1,96,30.37,3.0,SSW,3.5,-,N/A,,Clear,210,2012-11-28 08:54:00
4:02 AM,26.6,24.8,93,30.34,2.5,SSW,4.6,-,N/A,,Clear,200,2012-11-28 09:02:00
4:54 AM,26.1,25.0,96,30.37,2.5,SSW,4.6,-,N/A,,Clear,200,2012-11-28 09:54:00
5:54 AM,25.0,25.0,100,30.38,2.5,South,5.8,-,N/A,,Clear,190,2012-11-28 10:54:00
6:09 AM,24.8,24.8,100,30.35,2.5,SSW,6.9,-,N/A,,Scattered Clouds,200,2012-11-28 11:09:00
6:18 AM,24.8,24.8,100,30.36,2.0,South,5.8,-,N/A,,Mostly Cloudy,190,2012-11-28 11:18:00
6:54 AM,24.8,24.8,100,30.37,0.5,SW,3.5,-,N/A,Fog,Light Freezing Fog,220,2012-11-28 11:54:00
7:17 AM,24.8,24.8,100,30.39,0.2,Calm,Calm,-,N/A,Fog,Light Freezing Fog,0,2012-11-28 12:17:00
7:27 AM,24.8,24.8,100,30.39,0.1,Calm,Calm,-,N/A,Fog,Light Freezing Fog,0,2012-11-28 12:27:00
7:54 AM,25.0,25.0,100,30.43,0.1,SSW,3.5,-,N/A,Fog,Light Freezing Fog,200,2012-11-28 12:54:00
8:46 AM,26.6,26.6,100,30.41,0.2,SSW,4.6,-,N/A,Fog,Light Freezing Fog,210,2012-11-28 13:46:00
8:54 AM,26.1,26.1,100,30.45,0.2,SW,4.6,-,N/A,Fog,Light Freezing Fog,220,2012-11-28 13:54:00
9:19 AM,26.6,26.6,100,30.42,1.0,SW,3.5,-,N/A,,Mist,230,2012-11-28 14:19:00
9:35 AM,28.4,28.4,100,30.43,2.0,SSW,3.5,-,N/A,,Scattered Clouds,210,2012-11-28 14:35:00
9:54 AM,28.9,28.9,100,30.46,3.0,SSW,4.6,-,N/A,,Clear,210,2012-11-28 14:54:00
10:54 AM,33.1,32.0,96,30.47,6.0,WSW,3.5,-,N/A,,Clear,240,2012-11-28 15:54:00
11:54 AM,37.9,28.0,68,30.46,10.0,WNW,5.8,-,N/A,,Clear,290,2012-11-28 16:54:00
12:54 PM,39.9,28.0,63,30.44,10.0,West,4.6,-,N/A,,Clear,260,2012-11-28 17:54:00
1:54 PM,41.0,26.1,55,30.42,10.0,Calm,Calm,-,N/A,,Clear,0,2012-11-28 18:54:00
2:54 PM,42.1,26.1,53,30.41,10.0,WSW,8.1,-,N/A,,Clear,240,2012-11-28 19:54:00
3:54 PM,42.1,26.1,53,30.40,10.0,West,6.9,-,N/A,,Clear,280,2012-11-28 20:54:00
4:54 PM,39.9,25.0,55,30.41,10.0,Calm,Calm,-,N/A,,Clear,0,2012-11-28 21:54:00
5:54 PM,37.9,24.1,57,30.42,10.0,Calm,Calm,-,N/A,,Clear,0,2012-11-28 22:54:00
6:54 PM,36.0,24.1,62,30.43,10.0,Calm,Calm,-,N/A,,Clear,0,2012-11-28 23:54:00
7:54 PM,33.1,24.1,70,30.44,10.0,Calm,Calm,-,N/A,,Clear,0,2012-11-29 00:54:00
8:54 PM,30.9,24.1,76,30.44,10.0,South,3.5,-,N/A,,Clear,170,2012-11-29 01:54:00
9:54 PM,27.0,23.0,85,30.43,10.0,SSE,5.8,-,N/A,,Clear,160,2012-11-29 02:54:00
10:54 PM,28.0,24.1,85,30.43,10.0,South,4.6,-,N/A,,Clear,170,2012-11-29 03:54:00
11:54 PM,28.0,23.0,81,30.42,10.0,SSE,3.5,-,N/A,,Clear,160,2012-11-29 04:54:00